Weather History for KJMR - December, 2013

Change the Weather History Date:

Saturday, December 21, 2013

  Actual Average Record
Temperature  
Mean Temperature 14 °F -  
Max Temperature 19 °F 24 °F - (-1)
Min Temperature 10 °F -1 °F - (-1)
Degree Days  
Heating Degree Days 50    
Moisture  
Dew Point 10 °F    
Average Humidity 81    
Maximum Humidity 86    
Minimum Humidity 68    
Precipitation  
Precipitation 0.00 in - - ()
Sea Level Pressure  
Sea Level Pressure 29.94 in    
Wind  
Wind Speed 1 mph (North)    
Max Wind Speed 6 mph    
Max Gust Speed -    
Visibility 10 miles    
Events Snow    
Averages and records for this station are not official NWS values.
T = Trace of Precipitation, MM = Missing Value Source: NWS Daily Summary

Daily Weather History Graph

Daily Weather History Graph

Search for Another Location

Airport or City:

Trip Planner

Search our weather history database for the weather conditions in past years. The results will help you decide how hot, cold, wet, or windy it might be!

Date:

Astronomy

Dec. 21, 2013 Rise Set
Actual Time 7:51 AM CST 4:31 PM CST
Civil Twilight 7:17 AM CST 5:05 PM CST
Nautical Twilight 6:39 AM CST 5:43 PM CST
Astronomical Twilight 6:02 AM CST 6:19 PM CST
Moon 9:00 PM CST (12/21) 10:07 AM CST (12/21)
Length of Visible Light 9h 48m
Length of Day
8h 39m
Waning Gibbous, 84% of the Moon is Illuminated
Dec 21
Waning Gibbous
Dec 25
Last Quarter
Jan 1
New
Jan 7
First Quarter
Jan 15
Full

Hourly Weather History & Observations

Time (CST) Temp. Windchill Dew Point Humidity Pressure Visibility Wind Dir Wind Speed Gust Speed Precip Events Conditions
12:13 AM 12.2 °F - 8.6 °F 85% 29.85 in 10.0 mi Calm Calm - N/A   Overcast
12:33 AM 12.2 °F - 8.6 °F 85% 29.85 in 10.0 mi Calm Calm - N/A   Overcast
12:53 AM 12.2 °F - 8.6 °F 85% 29.84 in 10.0 mi Calm Calm - N/A   Overcast
1:13 AM 12.2 °F - 8.6 °F 85% 29.85 in 10.0 mi Calm Calm - N/A   Overcast
1:33 AM 12.2 °F - 8.6 °F 85% 29.85 in 10.0 mi Calm Calm - N/A   Overcast
1:53 AM 14.0 °F - 8.6 °F 79% 29.86 in 10.0 mi Calm Calm - N/A   Overcast
2:13 AM 14.0 °F - 8.6 °F 79% 29.86 in 10.0 mi Calm Calm - N/A   Overcast
2:33 AM 14.0 °F - 8.6 °F 79% 29.87 in 10.0 mi Calm Calm - N/A   Overcast
2:53 AM 14.0 °F - 8.6 °F 79% 29.88 in 10.0 mi Calm Calm - N/A   Overcast
3:13 AM 14.0 °F - 8.6 °F 79% 29.88 in 10.0 mi Calm Calm - N/A   Overcast
3:33 AM 14.0 °F - 8.6 °F 79% 29.88 in 10.0 mi Calm Calm - N/A   Overcast
3:53 AM 14.0 °F - 10.4 °F 86% 29.88 in 10.0 mi Calm Calm - N/A   Overcast
4:13 AM 14.0 °F - 10.4 °F 86% 29.88 in 10.0 mi Calm Calm - N/A   Overcast
4:33 AM 14.0 °F - 8.6 °F 79% 29.87 in 10.0 mi Calm Calm - N/A   Overcast
4:53 AM 14.0 °F - 10.4 °F 86% 29.87 in 10.0 mi Calm Calm - N/A   Overcast
5:13 AM 14.0 °F - 10.4 °F 86% 29.87 in 10.0 mi Calm Calm - N/A   Overcast
5:33 AM 14.0 °F - 10.4 °F 86% 29.87 in 10.0 mi Calm Calm - N/A   Overcast
5:53 AM 14.0 °F - 10.4 °F 86% 29.87 in 10.0 mi Calm Calm - N/A   Overcast
6:13 AM 14.0 °F - 10.4 °F 86% 29.88 in 10.0 mi Calm Calm - N/A   Overcast
6:33 AM 14.0 °F - 10.4 °F 86% 29.87 in 10.0 mi Calm Calm - N/A   Overcast
6:53 AM 14.0 °F - 10.4 °F 86% 29.87 in 10.0 mi Calm Calm - N/A   Overcast
7:13 AM 14.0 °F - 10.4 °F 86% 29.90 in 10.0 mi Calm Calm - N/A   Overcast
7:33 AM 14.0 °F - 8.6 °F 79% 29.91 in 10.0 mi Calm Calm - N/A   Overcast
7:53 AM 14.0 °F 8.2 °F 10.4 °F 86% 29.90 in 10.0 mi NE 3.5 mph - N/A   Overcast
8:13 AM 14.0 °F - 10.4 °F 86% 29.92 in 10.0 mi Calm Calm - N/A   Overcast
8:33 AM 14.0 °F - 10.4 °F 86% 29.94 in 10.0 mi Calm Calm - N/A   Overcast
8:53 AM 14.0 °F - 10.4 °F 86% 29.94 in 7.0 mi Calm Calm - N/A Snow Light Snow
9:13 AM 14.0 °F - 10.4 °F 86% 29.94 in 10.0 mi Calm Calm - N/A Snow Light Snow
9:33 AM 14.0 °F - 10.4 °F 86% 29.94 in 7.0 mi Calm Calm - N/A Snow Light Snow
9:53 AM 14.0 °F - 10.4 °F 86% 29.96 in 10.0 mi Calm Calm - N/A   Overcast
10:13 AM 14.0 °F - 10.4 °F 86% 29.96 in 10.0 mi Calm Calm - N/A   Overcast
10:33 AM 14.0 °F 6.5 °F 10.4 °F 86% 29.96 in 10.0 mi North 4.6 mph - N/A   Overcast
10:53 AM 14.0 °F 8.2 °F 10.4 °F 86% 29.95 in 10.0 mi North 3.5 mph - N/A   Overcast
11:13 AM 17.6 °F - 10.4 °F 73% 29.95 in 10.0 mi Calm Calm - N/A   Overcast
11:33 AM 17.6 °F - 10.4 °F 73% 29.96 in 10.0 mi Calm Calm - N/A Snow Light Snow
11:53 AM 17.6 °F 10.7 °F 10.4 °F 73% 29.96 in 10.0 mi NNW 4.6 mph - N/A Snow Light Snow
12:13 PM 17.6 °F - 10.4 °F 73% 29.95 in 10.0 mi Calm Calm - N/A   Overcast
12:33 PM 17.6 °F 12.3 °F 10.4 °F 73% 29.93 in 10.0 mi North 3.5 mph - N/A   Overcast
12:53 PM 19.4 °F - 12.2 °F 74% 29.96 in 10.0 mi Calm Calm - N/A   Overcast
1:13 PM 19.4 °F 14.3 °F 12.2 °F 74% 29.97 in 10.0 mi NNW 3.5 mph - N/A Snow Light Snow
1:33 PM 19.4 °F 14.3 °F 12.2 °F 74% 29.97 in 10.0 mi NNW 3.5 mph - N/A Snow Light Snow
1:53 PM 19.4 °F - 12.2 °F 74% 29.96 in 10.0 mi Calm Calm - N/A   Overcast
2:13 PM 19.4 °F 14.3 °F 12.2 °F 74% 29.97 in 10.0 mi North 3.5 mph - N/A   Overcast
2:33 PM 19.4 °F 14.3 °F 10.4 °F 68% 29.96 in 10.0 mi North 3.5 mph - N/A   Overcast
2:53 PM 19.4 °F 11.5 °F 12.2 °F 74% 29.97 in 10.0 mi North 5.8 mph - N/A   Overcast
3:13 PM 19.4 °F 14.3 °F 12.2 °F 74% 29.98 in 10.0 mi NNE 3.5 mph - N/A   Overcast
3:33 PM 19.4 °F 14.3 °F 12.2 °F 74% 29.98 in 10.0 mi North 3.5 mph - N/A   Overcast
3:53 PM 17.6 °F 10.7 °F 12.2 °F 79% 29.99 in 10.0 mi NW 4.6 mph - N/A   Overcast
4:13 PM 17.6 °F 10.7 °F 10.4 °F 73% 29.99 in 10.0 mi NNW 4.6 mph - N/A   Overcast
4:33 PM 17.6 °F 10.7 °F 12.2 °F 79% 29.99 in 10.0 mi North 4.6 mph - N/A   Overcast
4:53 PM 17.6 °F 10.7 °F 12.2 °F 79% 30.00 in 10.0 mi NNW 4.6 mph - N/A   Overcast
5:13 PM 17.6 °F 9.3 °F 12.2 °F 79% 30.01 in 10.0 mi NW 5.8 mph - N/A Snow Light Snow
5:33 PM 17.6 °F 10.7 °F 12.2 °F 79% 30.00 in 10.0 mi North 4.6 mph - N/A   Overcast
5:53 PM 17.6 °F 10.7 °F 12.2 °F 79% 30.00 in 10.0 mi NNE 4.6 mph - N/A   Overcast
6:13 PM 15.8 °F 10.2 °F 10.4 °F 79% 29.99 in 10.0 mi NNE 3.5 mph - N/A   Overcast
6:33 PM 14.0 °F - 10.4 °F 86% 30.01 in 10.0 mi Calm Calm - N/A   Overcast
6:53 PM 14.0 °F 5.1 °F 10.4 °F 86% 30.00 in 10.0 mi NNE 5.8 mph - N/A   Overcast
7:13 PM 14.0 °F 8.2 °F 8.6 °F 79% 30.02 in 10.0 mi NNE 3.5 mph - N/A   Overcast
7:33 PM 14.0 °F 5.1 °F 8.6 °F 79% 30.01 in 10.0 mi North 5.8 mph - N/A   Mostly Cloudy
7:53 PM 14.0 °F - 8.6 °F 79% 30.02 in 10.0 mi Calm Calm - N/A   Clear
8:13 PM 12.2 °F - 8.6 °F 85% 30.02 in 10.0 mi Calm Calm - N/A   Clear
8:33 PM 12.2 °F - 6.8 °F 79% 30.02 in 10.0 mi Calm Calm - N/A   Scattered Clouds
8:53 PM 10.4 °F - 5.0 °F 79% 30.00 in 10.0 mi Calm Calm - N/A   Clear
9:13 PM 10.4 °F - 5.0 °F 79% 30.00 in 10.0 mi Calm Calm - N/A   Scattered Clouds
9:33 PM 10.4 °F - 5.0 °F 79% 29.99 in 10.0 mi Calm Calm - N/A   Overcast
9:53 PM 12.2 °F 4.3 °F 8.6 °F 85% 29.97 in 10.0 mi North 4.6 mph - N/A   Overcast
10:13 PM 12.2 °F - 8.6 °F 85% 29.97 in 10.0 mi Calm Calm - N/A   Overcast
10:33 PM 14.0 °F - 8.6 °F 79% 29.96 in 10.0 mi Calm Calm - N/A   Overcast
10:53 PM 14.0 °F 8.2 °F 10.4 °F 86% 29.97 in 10.0 mi North 3.5 mph - N/A   Overcast
11:13 PM 14.0 °F 8.2 °F 10.4 °F 86% 29.97 in 10.0 mi North 3.5 mph - N/A   Overcast
11:33 PM 14.0 °F - 10.4 °F 86% 29.97 in 10.0 mi Calm Calm - N/A   Overcast
11:53 PM 15.8 °F 8.6 °F 10.4 °F 79% 29.97 in 10.0 mi North 4.6 mph - N/A   Overcast